Date String (YYYY-MM-DD hh:mm:ss) UTC,Instrument flags,Ambient pressure (hPa),Sample flow (lpm),Bypass flow (lpm),Sample temperature (°C),Ambient temperature (°C),ASC tube jacket temperature (°C),LED temperature (°C),Box temperature (°C),Sample RH (%),Span deviation,Mass concentration (μg/m³),Mass concentration (μg/m³),Mass concentration (μg/m³)
DateTimeUTC,F1_M11,P_M11,Q1_M11,Q2_M11,T1_M11,T2_M11,T3_M11,T4_M11,T5_M11,U1_M11,ZSPAN_M11,X2_M11,X0_M11,X1_M11
2023-02-17 11:00:00,,0827.3,4.99,0.00,22.7,22.3,00.0,31.4,24.6,06.4,0000.0,0002.23,0003.96,0001.63
2023-02-17 11:01:00,,0827.2,4.99,0.00,22.7,21.9,00.0,31.5,24.5,06.6,0000.0,0002.21,0004.39,0001.63
2023-02-17 11:02:00,,0827.3,5.02,0.00,22.7,21.6,00.0,31.5,24.4,06.6,0000.0,0002.18,0004.34,0001.63
2023-02-17 11:03:00,,0827.2,5.00,0.00,22.7,21.3,00.0,31.5,24.4,06.6,0000.0,0002.17,0004.37,0001.63
2023-02-17 11:04:00,,0827.2,4.97,0.00,22.6,21.1,00.0,31.5,24.3,06.5,0000.0,0002.19,0004.42,0001.66
2023-02-17 11:05:00,,0827.3,5.00,0.00,22.6,21.0,00.0,31.5,24.2,06.6,0000.0,0002.19,0004.45,0001.67
2023-02-17 11:06:00,,0827.3,5.00,0.00,22.6,20.8,00.0,31.5,24.2,06.7,0000.0,0002.23,0004.73,0001.67
2023-02-17 11:07:00,,0827.3,5.01,0.00,22.5,20.7,00.0,31.5,24.1,06.7,0000.0,0002.23,0004.78,0001.67
2023-02-17 11:08:00,,0827.4,4.99,0.00,22.5,20.8,00.0,31.4,24.2,06.6,0000.0,0002.20,0004.90,0001.66
2023-02-17 11:09:00,,0827.2,4.99,0.00,22.6,22.0,00.0,31.4,24.4,06.5,0000.0,0002.26,0005.11,0001.67
2023-02-17 11:10:00,,0827.2,4.98,0.00,22.7,23.1,00.0,31.3,24.7,06.5,0000.0,0002.28,0005.13,0001.66
2023-02-17 11:11:00,,0827.2,4.94,0.00,22.8,23.2,00.0,31.4,24.8,06.4,0000.0,0002.25,0005.37,0001.64
2023-02-17 11:12:00,,0827.2,5.00,0.00,22.8,22.6,00.0,31.4,24.6,06.3,0000.0,0002.26,0005.32,0001.65
2023-02-17 11:13:00,,0827.1,4.99,0.00,22.8,22.1,00.0,31.5,24.5,06.3,0000.0,0002.27,0005.52,0001.67
2023-02-17 11:14:00,,0827.1,5.01,0.00,22.7,21.7,00.0,31.5,24.4,06.2,0000.0,0002.33,0006.36,0001.71
2023-02-17 11:15:00,,0827.0,5.01,0.00,22.7,21.4,00.0,31.5,24.3,06.1,0000.0,0002.43,0006.77,0001.74
2023-02-17 11:16:00,,0827.0,5.02,0.00,22.7,21.1,00.0,31.5,24.3,06.2,0000.0,0002.48,0007.53,0001.78
2023-02-17 11:17:00,,0827.0,5.05,0.00,22.6,21.0,00.0,31.5,24.2,06.2,0000.0,0002.44,0007.55,0001.82
2023-02-17 11:18:00,,0827.1,4.97,0.00,22.6,20.9,00.0,31.5,24.2,06.2,0000.0,0002.46,0007.91,0001.88
2023-02-17 11:19:00,,0827.2,5.01,0.00,22.6,20.8,00.0,31.5,24.2,06.2,0000.0,0002.54,0008.13,0001.93
2023-02-17 11:20:00,,0827.3,4.96,0.00,22.5,20.7,00.0,31.5,24.1,06.2,0000.0,0002.59,0008.13,0001.97
2023-02-17 11:21:00,,0827.1,4.99,0.00,22.5,21.1,00.0,31.4,24.2,06.2,0000.0,0002.60,0008.11,0002.00
2023-02-17 11:22:00,,0827.1,4.95,0.00,22.6,22.3,00.0,31.4,24.5,06.2,0000.0,0002.63,0007.75,0002.02
2023-02-17 11:23:00,,0827.2,4.91,0.00,22.7,23.2,00.0,31.4,24.7,06.2,0000.0,0002.62,0007.47,0002.04
2023-02-17 11:24:00,,0827.1,4.98,0.00,22.8,23.0,00.0,31.4,24.7,06.1,0000.0,0002.65,0007.44,0002.07
2023-02-17 11:25:00,,0827.1,5.01,0.00,22.8,22.4,00.0,31.5,24.6,06.0,0000.0,0002.64,0006.58,0002.08
2023-02-17 11:26:00,,0827.1,4.98,0.00,22.8,22.0,00.0,31.5,24.5,05.9,0000.0,0002.55,0006.25,0002.07
2023-02-17 11:27:00,,0827.2,4.99,0.00,22.7,21.7,00.0,31.5,24.5,05.9,0000.0,0002.54,0005.32,0002.06
2023-02-17 11:28:00,,0827.3,5.02,0.00,22.7,21.4,00.0,31.5,24.4,05.9,0000.0,0002.64,0005.04,0002.08
2023-02-17 11:29:00,,0827.1,5.00,0.00,22.7,21.2,00.0,31.5,24.3,05.9,0000.0,0002.74,0004.84,0002.11
2023-02-17 11:30:00,,0827.1,5.01,0.00,22.6,21.0,00.0,31.5,24.3,05.9,0000.0,0002.75,0004.34,0002.11
2023-02-17 11:31:00,,0827.5,5.00,0.00,22.6,20.9,00.0,31.5,24.2,06.0,0000.0,0002.73,0004.34,0002.13
2023-02-17 11:32:00,,0827.3,5.00,0.00,22.6,20.8,00.0,31.5,24.2,05.9,0000.0,0002.78,0004.46,0002.15
2023-02-17 11:33:00,,0827.2,5.02,0.00,22.5,20.7,00.0,31.5,24.1,05.8,0000.0,0002.82,0004.68,0002.18
2023-02-17 11:34:00,,0827.4,4.98,0.00,22.5,20.8,00.0,31.4,24.2,05.8,0000.0,0002.82,0005.35,0002.19
2023-02-17 11:35:00,,0827.1,4.99,0.00,22.6,21.8,00.0,31.4,24.4,05.8,0000.0,0002.83,0005.35,0002.20
2023-02-17 11:36:00,,0827.4,4.94,0.00,22.7,23.0,00.0,31.3,24.7,05.8,0000.0,0002.84,0005.86,0002.20
2023-02-17 11:37:00,,0827.4,4.91,0.00,22.8,23.2,00.0,31.4,24.8,05.8,0000.0,0002.88,0006.50,0002.21
2023-02-17 11:38:00,,0827.3,5.02,0.00,22.8,22.6,00.0,31.4,24.6,05.7,0000.0,0002.88,0006.56,0002.21
2023-02-17 11:39:00,,0827.2,4.97,0.00,22.8,22.2,00.0,31.5,24.6,05.7,0000.0,0002.83,0006.61,0002.20
2023-02-17 11:40:00,,0827.3,4.99,0.00,22.7,21.8,00.0,31.5,24.5,05.6,0000.0,0002.71,0006.52,0002.16
2023-02-17 11:41:00,,0827.1,5.01,0.00,22.7,21.5,00.0,31.5,24.4,05.6,0000.0,0002.65,0006.34,0002.13
2023-02-17 11:42:00,,0827.1,4.99,0.00,22.7,21.2,00.0,31.5,24.3,05.6,0000.0,0002.59,0006.27,0002.09
2023-02-17 11:43:00,,0827.1,5.01,0.00,22.6,20.9,00.0,31.5,24.2,05.6,0000.0,0002.54,0006.32,0002.07
2023-02-17 11:44:00,,0827.2,4.96,0.00,22.6,20.7,00.0,31.5,24.2,05.7,0000.0,0002.51,0006.21,0002.06
2023-02-17 11:45:00,,0827.2,4.99,0.00,22.6,20.6,00.0,31.5,24.2,05.9,0000.0,0002.49,0005.36,0002.04
2023-02-17 11:46:00,,0827.2,5.02,0.00,22.5,20.5,00.0,31.5,24.1,06.0,0000.0,0002.49,0005.39,0002.01
2023-02-17 11:47:00,,0827.1,5.02,0.00,22.5,21.4,00.0,31.4,24.3,06.0,0000.0,0002.45,0004.99,0001.99
2023-02-17 11:48:00,,0827.1,4.94,0.00,22.6,22.4,00.0,31.4,24.5,05.9,0000.0,0002.41,0004.33,0001.95
2023-02-17 11:49:00,,0827.1,4.93,0.00,22.7,23.0,00.0,31.4,24.7,05.8,0000.0,0002.38,0004.23,0001.93
2023-02-17 11:50:00,,0827.1,5.03,0.00,22.8,22.6,00.0,31.4,24.6,05.8,0000.0,0002.33,0004.20,0001.91
2023-02-17 11:51:00,,0827.3,5.00,0.00,22.7,22.1,00.0,31.5,24.5,05.7,0000.0,0002.35,0004.14,0001.90
2023-02-17 11:52:00,,0827.2,5.02,0.00,22.7,21.7,00.0,31.5,24.4,05.7,0000.0,0002.44,0004.53,0001.92
2023-02-17 11:53:00,,0827.0,5.00,0.00,22.7,21.3,00.0,31.5,24.3,05.8,0000.0,0002.43,0004.51,0001.92
2023-02-17 11:54:00,,0827.1,4.98,0.00,22.6,20.9,00.0,31.5,24.2,05.8,0000.0,0002.42,0004.34,0001.91
2023-02-17 11:55:00,,0827.1,5.00,0.00,22.6,20.7,00.0,31.5,24.1,05.8,0000.0,0002.43,0004.88,0001.90
2023-02-17 11:56:00,,0827.1,5.00,0.00,22.5,20.5,00.0,31.5,24.1,05.9,0000.0,0002.44,0005.23,0001.88
2023-02-17 11:57:00,,0827.2,5.01,0.00,22.5,20.4,00.0,31.5,24.1,05.9,0000.0,0002.45,0005.98,0001.88
2023-02-17 11:58:00,,0827.1,5.02,0.00,22.5,20.5,00.0,31.4,24.1,05.9,0000.0,0002.45,0006.65,0001.88
2023-02-17 11:59:00,,0827.2,5.04,0.00,22.5,21.7,00.0,31.3,24.3,05.8,0000.0,0002.46,0006.83,0001.89
